Location: UBC Liquid-Mirror Observatory
(49.2876°N, 122.5728°W)
Time: 02:46:37
(UTC-08:00)

KITSAT 1 - Visible Passes

Search period start: 16 January 2017 00:00
Search period end: 26 January 2017 00:00
Orbit: 1315 x 1315 km, 66.1° (Epoch: 14 January)

Date Brightness Start Highest point End Pass type
(mag) Time Alt. Az. Time Alt. Az. Time Alt. Az.
16 Jan 11.2 18:19:28 10° NW 18:26:13 28° NNE 18:29:45 21° NE visible
16 Jan 10.6 20:15:24 10° NW 20:21:45 51° N 20:21:45 51° N visible
16 Jan 12.1 22:11:08 10° NW 22:13:44 22° NW 22:13:44 22° NW visible
17 Jan 11.0 18:35:49 10° NW 18:42:54 31° NNE 18:45:40 26° ENE visible
17 Jan 10.6 20:31:30 10° NW 20:37:40 55° NNW 20:37:40 55° NNW visible
17 Jan 12.3 22:27:34 10° NW 22:29:40 18° WNW 22:29:40 18° WNW visible
18 Jan 10.8 18:52:03 10° NW 18:59:30 37° NNE 19:01:38 32° ENE visible
18 Jan 10.7 20:47:37 10° NW 20:53:38 55° NW 20:53:38 55° NW visible
18 Jan 12.5 22:44:19 10° WNW 22:45:38 14° WNW 22:45:38 14° WNW visible
19 Jan 11.4 17:11:53 10° NW 17:18:20 25° N 17:24:47 10° ENE visible
19 Jan 10.5 19:08:13 10° NW 19:15:59 46° NE 19:17:40 41° ENE visible
19 Jan 10.9 21:03:48 10° NW 21:09:40 48° WNW 21:09:40 48° WNW visible
20 Jan 11.2 17:28:23 10° NW 17:35:06 27° NNE 17:41:46 10° ENE visible
20 Jan 10.2 19:24:20 10° NW 19:32:20 58° NE 19:33:47 52° E visible
20 Jan 11.2 21:20:04 10° NW 21:25:47 39° W 21:25:47 39° W visible
21 Jan 11.0 17:44:45 10° NW 17:51:48 31° NNE 17:57:58 13° E visible
21 Jan 10.1 19:40:27 10° NW 19:48:35 75° NE 19:49:59 62° ESE visible
21 Jan 11.6 21:36:29 10° NW 21:42:00 30° W 21:42:00 30° W visible
22 Jan 10.8 18:01:00 10° NW 18:08:24 37° NNE 18:14:17 16° E visible
22 Jan 10.1 19:56:34 10° NW 20:04:42 85° SW 20:06:19 62° SSE visible
22 Jan 12.0 21:53:11 10° WNW 21:58:21 22° W 21:58:21 22° W visible
23 Jan 10.6 18:17:10 10° NW 18:24:54 45° NE 18:30:45 18° ESE visible
23 Jan 10.5 20:12:44 10° NW 20:20:41 64° WSW 20:22:48 49° S visible
23 Jan 12.3 22:10:33 10° WNW 22:14:30 15° W 22:14:51 14° W visible
24 Jan 10.3 18:33:17 10° NW 18:41:16 57° NE 18:47:26 18° ESE visible
24 Jan 11.0 20:28:59 10° NW 20:36:34 46° WSW 20:39:30 34° SSW visible
25 Jan 10.1 18:49:23 10° NW 18:57:31 73° NE 19:04:23 15° SE visible
25 Jan 11.5 20:45:23 10° NW 20:52:20 33° WSW 20:56:29 21° SSW visible
